KA9CBS Weather Reports


time (UTC)temp
C
wind
direction
speed
KPH
gust
KPH
rain 1hr
cm
rain 24hr
cm
rain mn
cm
humidity
%
barometer
mb
20260906004016 31 158 0.0 0.0 0.00 0.00 0.00 65 1013.0
20260906003511 31 150 1.6 1.6 0.00 0.00 0.00 66 1012.9
20260906003007 32 154 0.0 0.0 0.00 0.00 0.00 62 1013.0
20260906002501 32 156 0.0 0.0 0.00 0.00 0.00 62 1012.7
20260906001956 32 150 0.0 0.0 0.00 0.00 0.00 60 1012.8
20260906001452 32 129 1.6 3.2 0.00 0.00 0.00 59 1012.9
20260906000946 33 142 1.6 1.6 0.00 0.00 0.00 60 1012.8
20260906000442 33 132 1.6 3.2 0.00 0.00 0.00 57 1013.1
20260905235942 33 141 1.6 3.2 0.00 0.00 0.00 57 1012.8
20260905235436 33 147 3.2 3.2 0.00 0.00 0.00 56 1013.3
20260905234931 34 115 4.8 4.8 0.00 0.00 0.00 54 1013.1
20260905234426 34 110 4.8 4.8 0.00 0.00 0.00 53 1013.0
20260905233921 34 124 3.2 3.2 0.00 0.00 0.00 53 1013.1
20260905233417 34 118 3.2 3.2 0.00 0.00 0.00 53 1012.9
20260905232915 34 75 6.4 8.0 0.00 0.00 0.00 53 1013.2
20260905232412 35 101 3.2 4.8 0.00 0.00 0.00 52 1013.0
20260905231906 35 78 6.4 8.0 0.00 0.00 0.00 50 1013.1
20260905231402 35 53 9.7 14.5 0.00 0.00 0.00 50 1012.8
20260905230859 35 62 9.7 11.3 0.00 0.00 0.00 50 1012.9
20260905230356 35 102 4.8 4.8 0.00 0.00 0.00 49 1012.9
20260905225850 35 61 4.8 9.7 0.00 0.00 0.00 49 1012.6
20260905225345 36 50 14.5 20.9 0.00 0.00 0.00 48 1013.0
20260905224840 36 82 3.2 4.8 0.00 0.00 0.00 45 1012.7
20260905224336 36 89 4.8 4.8 0.00 0.00 0.00 44 1012.8
20260905223836 36 148 0.0 1.6 0.00 0.00 0.00 45 1012.8
20260905223334 36 79 3.2 3.2 0.00 0.00 0.00 45 1012.8
20260905222828 36 103 3.2 3.2 0.00 0.00 0.00 45 1013.0
20260905222327 36 71 8.0 9.7 0.00 0.00 0.00 45 1012.6
20260905221823 37 105 3.2 3.2 0.00 0.00 0.00 45 1012.5
20260905221320 37 144 0.0 1.6 0.00 0.00 0.00 49 1012.5
20260905220816 36 95 3.2 3.2 0.00 0.00 0.00 46 1012.6
20260905220312 36 115 4.8 4.8 0.00 0.00 0.00 47 1012.6
20260905215811 36 109 3.2 4.8 0.00 0.00 0.00 48 1012.7
20260905215307 36 71 4.8 9.7 0.00 0.00 0.00 46 1012.7
20260905214802 37 56 6.4 14.5 0.00 0.00 0.00 46 1012.7
20260905214258 36 139 3.2 3.2 0.00 0.00 0.00 46 1012.5
20260905213753 36 82 6.4 8.0 0.00 0.00 0.00 47 1012.7
20260905213250 36 51 4.8 4.8 0.00 0.00 0.00 47 1012.6
20260905212744 36 62 8.0 9.7 0.00 0.00 0.00 46 1012.6
20260905212243 36 78 4.8 8.0 0.00 0.00 0.00 46 1012.7
20260905211743 37 134 1.6 1.6 0.00 0.00 0.00 46 1012.9
20260905211238 37 140 1.6 1.6 0.00 0.00 0.00 46 1012.8
20260905210735 37 107 3.2 3.2 0.00 0.00 0.00 42 1013.0
20260905210235 37 87 4.8 4.8 0.00 0.00 0.00 45 1012.8
20260905205733 37 56 11.3 14.5 0.00 0.00 0.00 41 1013.1
20260905205228 37 98 4.8 9.7 0.00 0.00 0.00 40 1012.8
20260905204723 37 71 8.0 9.7 0.00 0.00 0.00 42 1013.0
20260905204218 37 63 3.2 3.2 0.00 0.00 0.00 42 1012.9
20260905203718 37 132 1.6 1.6 0.00 0.00 0.00 42 1013.3
20260905203213 37 137 3.2 4.8 0.00 0.00 0.00 43 1013.0
20260905202708 37 70 8.0 9.7 0.00 0.00 0.00 42 1013.4
20260905202203 37 139 1.6 3.2 0.00 0.00 0.00 44 1013.4
20260905201659 37 55 8.0 14.5 0.00 0.00 0.00 44 1013.4
20260905201159 37 79 6.4 9.7 0.00 0.00 0.00 43 1013.2
20260905200654 37 113 4.8 8.0 0.00 0.00 0.00 42 1013.4
20260905200150 37 59 9.7 11.3 0.00 0.00 0.00 44 1013.4
20260905195648 37 66 14.5 17.7 0.00 0.00 0.00 43 1013.6
20260905195143 37 73 8.0 11.3 0.00 0.00 0.00 44 1013.3
20260905194638 37 88 4.8 8.0 0.00 0.00 0.00 44 1013.5
20260905194138 36 74 8.0 9.7 0.00 0.00 0.00 45 1013.8
20260905193632 36 75 4.8 11.3 0.00 0.00 0.00 46 1013.8
20260905193127 37 57 12.9 14.5 0.00 0.00 0.00 45 1013.9
20260905192623 37 158 0.0 0.0 0.00 0.00 0.00 46 1013.7
20260905192119 37 111 1.6 3.2 0.00 0.00 0.00 45 1014.1
20260905191618 37 85 4.8 4.8 0.00 0.00 0.00 47 1013.9
20260905191117 37 152 3.2 3.2 0.00 0.00 0.00 47 1014.0
20260905190615 37 86 3.2 3.2 0.00 0.00 0.00 47 1014.3
20260905190115 36 142 1.6 1.6 0.00 0.00 0.00 49 1014.2
20260905185613 36 62 6.4 8.0 0.00 0.00 0.00 49 1014.2
20260905185108 37 74 3.2 8.0 0.00 0.00 0.00 49 1014.3
20260905184603 37 132 1.6 3.2 0.00 0.00 0.00 48 1014.1
20260905184102 37 147 1.6 3.2 0.00 0.00 0.00 48 1014.2
20260905183601 37 135 0.0 1.6 0.00 0.00 0.00 48 1014.7
20260905183057 37 151 1.6 1.6 0.00 0.00 0.00 47 1014.4
20260905182551 36 130 1.6 3.2 0.00 0.00 0.00 49 1014.5
20260905182050 36 129 1.6 1.6 0.00 0.00 0.00 50 1014.6
20260905181545 36 149 1.6 1.6 0.00 0.00 0.00 49 1014.6
20260905181045 36 147 0.0 0.0 0.00 0.00 0.00 49 1014.6
20260905180545 36 146 0.0 1.6 0.00 0.00 0.00 49 1014.8
20260905180041 36 303 4.8 4.8 0.00 0.00 0.00 49 1014.9
20260905175539 36 153 0.0 1.6 0.00 0.00 0.00 49 1014.8
20260905175036 37 142 3.2 3.2 0.00 0.00 0.00 48 1014.8
20260905174531 36 139 1.6 1.6 0.00 0.00 0.00 50 1014.8
20260905174026 37 96 4.8 4.8 0.00 0.00 0.00 49 1014.9
20260905173523 37 161 0.0 0.0 0.00 0.00 0.00 47 1014.8
20260905173018 37 153 0.0 1.6 0.00 0.00 0.00 49 1014.9
20260905172516 37 163 0.0 0.0 0.00 0.00 0.00 49 1014.9
20260905172012 37 153 3.2 4.8 0.00 0.00 0.00 50 1015.3
20260905171508 36 155 4.8 4.8 0.00 0.00 0.00 50 1015.2
20260905171004 36 139 1.6 3.2 0.00 0.00 0.00 52 1015.2
20260905170500 35 142 1.6 1.6 0.00 0.00 0.00 52 1015.3
20260905165959 36 57 6.4 8.0 0.00 0.00 0.00 51 1015.3
20260905165455 36 86 3.2 3.2 0.00 0.00 0.00 51 1015.4
20260905164950 35 145 1.6 1.6 0.00 0.00 0.00 52 1015.2
20260905164444 36 84 1.6 1.6 0.00 0.00 0.00 53 1015.6
20260905163939 35 155 0.0 1.6 0.00 0.00 0.00 53 1015.7
20260905163436 35 151 4.8 4.8 0.00 0.00 0.00 54 1015.8
20260905162931 35 84 3.2 3.2 0.00 0.00 0.00 55 1015.8
20260905162426 35 128 3.2 4.8 0.00 0.00 0.00 55 1016.0
20260905161921 35 155 1.6 1.6 0.00 0.00 0.00 56 1016.0
20260905161420 35 96 3.2 3.2 0.00 0.00 0.00 57 1016.1
20260905160918 35 162 1.6 1.6 0.00 0.00 0.00 57 1016.1
20260905160412 35 144 1.6 1.6 0.00 0.00 0.00 57 1015.9
20260905155906 34 154 0.0 1.6 0.00 0.00 0.00 59 1015.9
20260905155401 33 63 4.8 9.7 0.00 0.00 0.00 57 1016.0
20260905154900 34 114 3.2 4.8 0.00 0.00 0.00 56 1015.9
20260905154355 34 127 3.2 3.2 0.00 0.00 0.00 58 1016.1
20260905153851 34 125 3.2 3.2 0.00 0.00 0.00 58 1016.0
20260905153347 34 148 3.2 3.2 0.00 0.00 0.00 59 1016.2
20260905152847 34 150 3.2 3.2 0.00 0.00 0.00 59 1016.2
20260905152345 33 127 3.2 3.2 0.00 0.00 0.00 61 1015.9
20260905151841 33 154 1.6 3.2 0.00 0.00 0.00 61 1016.1
20260905151337 33 135 3.2 3.2 0.00 0.00 0.00 62 1016.0
20260905150837 33 158 1.6 3.2 0.00 0.00 0.00 62 1016.1
20260905150332 32 126 1.6 3.2 0.00 0.00 0.00 63 1016.1
20260905145829 32 134 1.6 3.2 0.00 0.00 0.00 66 1016.1
20260905145328 32 152 1.6 3.2 0.00 0.00 0.00 63 1016.1
20260905144827 32 357 8.0 8.0 0.00 0.00 0.00 64 1016.2
20260905144323 31 237 3.2 4.8 0.00 0.00 0.00 67 1016.0
20260905143821 31 182 1.6 1.6 0.00 0.00 0.00 71 1016.1
20260905143316 31 280 8.0 8.0 0.00 0.00 0.00 71 1016.1
20260905142815 31 272 8.0 11.3 0.00 0.00 0.00 70 1015.9
20260905142309 31 173 3.2 4.8 0.00 0.00 0.00 70 1016.4
20260905141806 31 170 1.6 1.6 0.00 0.00 0.00 71 1015.9
20260905141301 30 161 1.6 1.6 0.00 0.00 0.00 72 1016.0
20260905140757 30 173 1.6 1.6 0.00 0.00 0.00 73 1016.0
20260905140256 30 166 0.0 1.6 0.00 0.00 0.00 75 1015.9
20260905135755 29 290 6.4 8.0 0.00 0.00 0.00 77 1016.1
20260905135252 28 213 3.2 3.2 0.00 0.00 0.00 79 1016.2
20260905134752 28 265 4.8 8.0 0.00 0.00 0.00 79 1016.2
20260905134251 28 276 4.8 4.8 0.00 0.00 0.00 80 1016.4
20260905133745 28 260 4.8 4.8 0.00 0.00 0.00 81 1016.4
20260905133241 28 226 4.8 4.8 0.00 0.00 0.00 81 1016.4
20260905132739 27 177 1.6 1.6 0.00 0.00 0.00 82 1016.1
20260905132236 27 196 3.2 3.2 0.00 0.00 0.00 82 1016.4
20260905131730 27 232 4.8 4.8 0.00 0.00 0.00 83 1016.3
20260905131226 27 270 8.0 8.0 0.00 0.00 0.00 83 1016.1
20260905130726 27 230 4.8 4.8 0.00 0.00 0.00 83 1016.4
20260905130225 27 175 0.0 1.6 0.00 0.00 0.00 85 1016.1
20260905125720 26 176 0.0 0.0 0.00 0.00 0.00 87 1016.2
20260905125216 26 192 4.8 4.8 0.00 0.00 0.00 88 1016.1
20260905124712 26 168 0.0 1.6 0.00 0.00 0.00 87 1016.1
20260905124208 26 168 0.0 0.0 0.00 0.00 0.00 89 1016.2
20260905123702 25 168 0.0 0.0 0.00 0.00 0.00 91 1016.1
20260905123200 25 169 0.0 0.0 0.00 0.00 0.00 91 1016.0
20260905122659 25 171 0.0 0.0 0.00 0.00 0.00 91 1016.1
20260905122153 24 171 0.0 0.0 0.00 0.00 0.00 92 1016.0
20260905121648 24 171 0.0 1.6 0.00 0.00 0.00 92 1015.7
20260905121144 24 171 0.0 0.0 0.00 0.00 0.00 92 1015.7
20260905120643 24 171 1.6 1.6 0.00 0.00 0.00 91 1015.7
20260905120138 24 182 0.0 0.0 0.00 0.00 0.00 91 1015.6
20260905115637 24 183 0.0 0.0 0.00 0.00 0.00 91 1015.6
20260905115133 24 184 0.0 0.0 0.00 0.00 0.00 91 1015.6
20260905114632 24 187 1.6 1.6 0.00 0.00 0.00 90 1015.7
20260905114131 25 193 1.6 3.2 0.00 0.00 0.00 88 1015.4
20260905113626 25 183 1.6 1.6 0.00 0.00 0.00 85 1015.5
20260905113121 25 155 0.0 0.0 0.00 0.00 0.00 86 1015.4
20260905112618 25 149 1.6 1.6 0.00 0.00 0.00 87 1015.4
20260905112112 25 154 1.6 1.6 0.00 0.00 0.00 88 1015.5
20260905111606 25 169 0.0 1.6 0.00 0.00 0.00 86 1015.5
20260905111105 25 185 1.6 3.2 0.00 0.00 0.00 87 1015.5
20260905110605 25 213 4.8 4.8 0.00 0.00 0.00 87 1015.1
20260905110100 25 131 3.2 3.2 0.00 0.00 0.00 85 1015.3
20260905105554 25 146 0.0 0.0 0.00 0.00 0.00 87 1015.3
20260905105053 25 146 1.6 3.2 0.00 0.00 0.00 88 1015.4
20260905104550 25 148 0.0 1.6 0.00 0.00 0.00 89 1015.2
20260905104049 25 150 1.6 1.6 0.00 0.00 0.00 90 1015.4
20260905103545 24 152 0.0 0.0 0.00 0.00 0.00 90 1015.3
20260905103041 24 152 0.0 0.0 0.00 0.00 0.00 91 1015.4
20260905102536 24 152 0.0 0.0 0.00 0.00 0.00 91 1015.3
20260905102033 24 152 0.0 0.0 0.00 0.00 0.00 90 1015.6
20260905101531 24 153 0.0 1.6 0.00 0.00 0.00 90 1015.4
20260905101029 24 155 0.0 0.0 0.00 0.00 0.00 89 1015.5
20260905100526 25 156 0.0 0.0 0.00 0.00 0.00 89 1015.3
20260905100026 25 157 0.0 0.0 0.00 0.00 0.00 90 1015.4
20260905095520 24 155 0.0 0.0 0.00 0.00 0.00 91 1014.9
20260905095015 23 160 1.6 1.6 0.00 0.00 0.00 92 1015.4
20260905094510 23 158 0.0 0.0 0.00 0.00 0.00 92 1015.3
20260905094009 24 158 0.0 0.0 0.00 0.00 0.00 92 1015.2
20260905093504 24 159 0.0 0.0 0.00 0.00 0.00 91 1015.2
20260905093001 24 159 0.0 0.0 0.00 0.00 0.00 92 1015.2
20260905092456 24 159 1.6 1.6 0.00 0.00 0.00 91 1015.3
20260905091951 24 159 0.0 1.6 0.00 0.00 0.00 91 1015.1
20260905091451 24 158 0.0 0.0 0.00 0.00 0.00 91 1015.1
20260905090950 24 157 0.0 0.0 0.00 0.00 0.00 91 1014.9
20260905090445 24 157 0.0 0.0 0.00 0.00 0.00 91 1015.1
20260905085944 24 157 0.0 0.0 0.00 0.00 0.00 91 1015.1
20260905085444 24 157 0.0 0.0 0.00 0.00 0.00 91 1014.9
20260905084940 24 157 0.0 0.0 0.00 0.00 0.00 91 1015.3
20260905084439 25 157 0.0 0.0 0.00 0.00 0.00 90 1015.2
20260905083934 25 157 0.0 0.0 0.00 0.00 0.00 90 1015.3
20260905083430 25 157 0.0 0.0 0.00 0.00 0.00 89 1015.1
20260905082926 25 157 0.0 0.0 0.00 0.00 0.00 89 1015.2
20260905082421 25 156 0.0 0.0 0.00 0.00 0.00 88 1015.1
20260905081916 25 157 0.0 0.0 0.00 0.00 0.00 88 1015.2
20260905081411 25 157 1.6 1.6 0.00 0.00 0.00 88 1015.3
20260905080910 25 156 0.0 1.6 0.00 0.00 0.00 87 1015.3
20260905080410 25 155 0.0 0.0 0.00 0.00 0.00 87 1015.3
20260905075909 25 155 0.0 0.0 0.00 0.00 0.00 87 1015.2
20260905075403 25 155 0.0 0.0 0.00 0.00 0.00 87 1015.3
20260905074902 25 154 0.0 0.0 0.00 0.00 0.00 87 1015.2
20260905074358 25 154 0.0 0.0 0.00 0.00 0.00 87 1015.2
20260905073853 25 154 0.0 0.0 0.00 0.00 0.00 88 1015.5
20260905073343 25 155 0.0 0.0 0.00 0.00 0.00 89 1015.2
20260905072838 25 155 0.0 0.0 0.00 0.00 0.00 89 1015.4
20260905072333 25 155 0.0 0.0 0.00 0.00 0.00 89 1015.2
20260905071829 25 155 0.0 0.0 0.00 0.00 0.00 88 1015.4
20260905071326 25 155 0.0 0.0 0.00 0.00 0.00 88 1015.3
20260905070820 25 155 0.0 0.0 0.00 0.00 0.00 89 1015.3
20260905070317 25 155 0.0 0.0 0.00 0.00 0.00 88 1015.2
20260905065815 25 155 0.0 0.0 0.00 0.00 0.00 88 1015.5
20260905065313 25 155 0.0 0.0 0.00 0.00 0.00 88 1015.4
20260905064809 25 155 0.0 0.0 0.00 0.00 0.00 88 1015.3
20260905064305 25 155 0.0 0.0 0.00 0.00 0.00 87 1015.4
20260905063803 25 155 0.0 0.0 0.00 0.00 0.00 86 1015.7
20260905063259 25 155 0.0 0.0 0.00 0.00 0.00 87 1015.5
20260905062754 25 155 0.0 0.0 0.00 0.00 0.00 87 1015.7
20260905062249 25 155 0.0 0.0 0.00 0.00 0.00 86 1015.3
20260905061743 26 155 0.0 0.0 0.00 0.00 0.00 85 1015.6
20260905061238 26 155 0.0 0.0 0.00 0.00 0.00 84 1015.7
20260905060732 26 155 0.0 0.0 0.00 0.00 0.00 83 1015.7
20260905060230 26 155 0.0 0.0 0.00 0.00 0.00 82 1015.6
20260905055728 26 155 0.0 0.0 0.00 0.00 0.00 82 1015.7
20260905055223 26 160 0.0 1.6 0.00 0.00 0.00 82 1015.7
20260905054718 26 159 1.6 1.6 0.00 0.00 0.00 82 1015.6
20260905054215 26 159 0.0 0.0 0.00 0.00 0.00 81 1015.5
20260905053714 27 162 0.0 0.0 0.00 0.00 0.00 81 1015.8
20260905053208 27 163 0.0 0.0 0.00 0.00 0.00 80 1015.6
20260905052703 27 164 0.0 1.6 0.00 0.00 0.00 80 1015.8
20260905052158 27 164 1.6 1.6 0.00 0.00 0.00 79 1016.0
20260905051652 27 163 0.0 0.0 0.00 0.00 0.00 79 1015.7
20260905051149 27 163 0.0 0.0 0.00 0.00 0.00 78 1016.0
20260905050645 27 164 0.0 1.6 0.00 0.00 0.00 78 1015.7
20260905050141 27 164 1.6 1.6 0.00 0.00 0.00 78 1015.7
20260905045641 27 164 1.6 1.6 0.00 0.00 0.00 77 1015.7
20260905045137 27 164 0.0 1.6 0.00 0.00 0.00 77 1015.8
20260905044637 27 167 1.6 1.6 0.00 0.00 0.00 77 1015.5
20260905044132 27 175 1.6 1.6 0.00 0.00 0.00 78 1015.7
20260905043630 28 167 0.0 1.6 0.00 0.00 0.00 76 1015.5
20260905043126 28 165 0.0 1.6 0.00 0.00 0.00 75 1015.8
20260905042624 28 163 1.6 1.6 0.00 0.00 0.00 74 1015.6
20260905042120 28 170 1.6 1.6 0.00 0.00 0.00 74 1015.5
20260905041615 28 180 3.2 3.2 0.00 0.00 0.00 74 1015.5
20260905041111 28 182 1.6 1.6 0.00 0.00 0.00 74 1015.7
20260905040611 28 204 3.2 3.2 0.00 0.00 0.00 74 1015.5
20260905040109 28 188 1.6 1.6 0.00 0.00 0.00 73 1015.8
20260905035605 28 178 1.6 1.6 0.00 0.00 0.00 74 1015.6
20260905035101 29 223 4.8 4.8 0.00 0.00 0.00 72 1015.8
20260905034557 29 199 3.2 3.2 0.00 0.00 0.00 72 1015.4
20260905034057 29 183 3.2 3.2 0.00 0.00 0.00 72 1015.9
20260905033556 29 182 1.6 1.6 0.00 0.00 0.00 72 1015.9
20260905033047 28 174 1.6 1.6 0.00 0.00 0.00 73 1015.9
20260905032546 29 178 0.0 0.0 0.00 0.00 0.00 74 1015.7
20260905032047 29 179 1.6 1.6 0.00 0.00 0.00 72 1016.0
20260905031543 29 192 1.6 3.2 0.00 0.00 0.00 72 1016.0
20260905031042 29 190 1.6 3.2 0.00 0.00 0.00 72 1016.0
20260905030538 29 189 3.2 3.2 0.00 0.00 0.00 73 1016.1
20260905030038 29 212 3.2 3.2 0.00 0.00 0.00 73 1015.8
20260905025533 29 172 1.6 1.6 0.00 0.00 0.00 72 1016.0
20260905025029 29 169 1.6 1.6 0.00 0.00 0.00 72 1016.1
20260905024524 28 182 0.0 0.0 0.00 0.00 0.00 75 1015.8
20260905024020 27 160 0.0 0.0 0.00 0.00 0.00 80 1016.0
20260905023515 27 156 0.0 0.0 0.00 0.00 0.00 83 1015.9
20260905023009 27 156 0.0 0.0 0.00 0.00 0.00 83 1015.8
20260905022503 27 156 0.0 0.0 0.00 0.00 0.00 82 1015.7
20260905021959 27 156 0.0 0.0 0.00 0.00 0.00 82 1015.7
20260905021458 27 156 0.0 0.0 0.00 0.00 0.00 82 1015.7
20260905020954 27 156 0.0 0.0 0.00 0.00 0.00 83 1015.9
20260905020454 27 156 0.0 0.0 0.00 0.00 0.00 84 1015.7
20260905015953 27 156 0.0 0.0 0.00 0.00 0.00 84 1015.6
20260905015452 27 156 0.0 0.0 0.00 0.00 0.00 83 1015.6
20260905014951 27 156 0.0 0.0 0.00 0.00 0.00 83 1015.6
20260905014447 27 161 0.0 0.0 0.00 0.00 0.00 83 1015.3
20260905013942 28 161 0.0 1.6 0.00 0.00 0.00 82 1015.2
20260905013438 28 161 0.0 0.0 0.00 0.00 0.00 81 1015.4
20260905012933 28 161 0.0 0.0 0.00 0.00 0.00 81 1015.4
20260905012428 28 161 0.0 0.0 0.00 0.00 0.00 81 1015.5
20260905011925 28 155 0.0 0.0 0.00 0.00 0.00 80 1015.3
20260905011420 28 164 0.0 0.0 0.00 0.00 0.00 79 1015.3
20260905010916 28 143 0.0 0.0 0.00 0.00 0.00 78 1014.9
20260905010411 29 143 0.0 0.0 0.00 0.00 0.00 78 1014.9
20260905005907 29 143 0.0 0.0 0.00 0.00 0.00 78 1014.9
20260905005403 29 142 0.0 0.0 0.00 0.00 0.00 77 1014.9
20260905004858 29 142 0.0 0.0 0.00 0.00 0.00 77 1014.8
20260905004358 30 142 0.0 0.0 0.00 0.00 0.00 76 1014.6